Location: Latina
(41.4670°N, 12.8670°E)
Time: 22:11:23
(UTC+02:00)

ISS - Pass Details

Date: 12 May 2021
Orbit: 417 x 422 km, 51.6° (Epoch: 22 June)

Event Time Altitude Azimuth Distance (km) Brightness Sun altitude
Rises 04:27:33 0° 309° (NW) 2,374 0.0 -14.2°
Reaches altitude 10° 04:29:50 10° 321° (NW) 1,508 -0.9 -13.9°
Maximum altitude 04:32:52 30° 24° (NNE) 791 -1.7 -13.4°
Drops below altitude 10° 04:35:53 10° 88° (E) 1,505 -0.1 -13.0°
Sets 04:38:09 0° 99° (E) 2,367 0.7 -12.6°
